N4BCD Weather Reports


Display with metric or nautical units.
time (UTC)temp
F
wind
direction
speed
MPH
gust
MPH
rain 1hr
in
rain 24hr
in
rain mn
in
humidity
%
barometer
mb
20260504050503 44 89 0.0 0.0 0.00 0.00 0.00 90 1016.9
20260504050012 44 89 0.0 0.0 0.00 0.00 0.00 90 1017.0
20260504045504 44 89 0.0 0.0 0.00 0.00 0.00 90 1017.0
20260504045003 44 89 0.0 1.0 0.00 0.00 0.00 89 1017.0
20260504044509 44 89 0.0 1.0 0.00 0.00 0.00 90 1017.0
20260504044003 44 89 1.0 1.0 0.00 0.00 0.00 90 1016.8
20260504043503 44 91 0.0 1.0 0.00 0.00 0.00 89 1016.9
20260504043008 45 91 0.0 1.0 0.00 0.00 0.00 89 1017.0
20260504042504 45 91 0.0 1.0 0.00 0.00 0.00 89 1017.0
20260504042003 45 91 0.0 1.0 0.00 0.00 0.00 88 1017.1
20260504041510 45 91 0.0 1.0 0.00 0.00 0.00 88 1017.2
20260504041002 45 91 0.0 2.0 0.00 0.00 0.00 88 1017.1
20260504040503 45 91 0.0 2.0 0.00 0.00 0.00 88 1017.2
20260504040008 45 102 0.0 1.0 0.00 0.00 0.00 87 1017.1
20260504035505 46 124 0.0 0.0 0.00 0.00 0.00 87 1017.1
20260504035004 46 226 0.0 0.0 0.00 0.00 0.00 87 1017.2
20260504034510 46 226 0.0 1.0 0.00 0.00 0.00 86 1017.2
20260504034007 47 226 0.0 1.0 0.00 0.00 0.00 86 1017.2
20260504033505 47 226 0.0 1.0 0.00 0.00 0.00 86 1017.3
20260504033011 47 226 1.0 1.0 0.00 0.00 0.00 86 1017.2
20260504032503 47 226 0.0 1.0 0.00 0.00 0.00 84 1017.2
20260504032006 47 226 0.0 1.0 0.00 0.00 0.00 84 1017.3
20260504031511 47 226 0.0 0.0 0.00 0.00 0.00 85 1017.3
20260504031004 47 226 0.0 0.0 0.00 0.00 0.00 84 1017.3
20260504030504 47 226 0.0 0.0 0.00 0.00 0.00 84 1017.3
20260504030013 47 226 0.0 0.0 0.00 0.00 0.00 84 1017.4
20260504025503 47 226 0.0 0.0 0.00 0.00 0.00 83 1017.4
20260504025003 48 226 0.0 0.0 0.00 0.00 0.00 83 1017.2
20260504024507 48 226 0.0 1.0 0.00 0.00 0.00 80 1017.2
20260504024003 49 226 0.0 1.0 0.00 0.00 0.00 81 1017.2
20260504023504 49 226 0.0 1.0 0.00 0.00 0.00 81 1017.3
20260504023009 49 226 1.0 1.0 0.00 0.00 0.00 81 1017.2
20260504022506 49 225 0.0 0.0 0.00 0.00 0.00 79 1017.1
20260504022004 50 225 0.0 1.0 0.00 0.00 0.00 78 1017.2
20260504021509 50 225 0.0 1.0 0.00 0.00 0.00 78 1017.1
20260504021004 50 225 0.0 0.0 0.00 0.00 0.00 79 1017.0
20260504020503 50 225 0.0 0.0 0.00 0.00 0.00 78 1016.9
20260504020010 50 225 0.0 0.0 0.00 0.00 0.00 76 1016.9
20260504015503 51 225 0.0 0.0 0.00 0.00 0.00 76 1017.0
20260504015005 51 225 0.0 0.0 0.00 0.00 0.00 75 1016.8
20260504014511 52 225 0.0 0.0 0.00 0.00 0.00 74 1016.8
20260504014003 52 225 0.0 0.0 0.00 0.00 0.00 73 1016.9
20260504013503 52 225 0.0 0.0 0.00 0.00 0.00 72 1016.8
20260504013012 53 225 0.0 0.0 0.00 0.00 0.00 70 1016.7
20260504012504 53 225 0.0 0.0 0.00 0.00 0.00 68 1016.7
20260504012004 54 225 0.0 0.0 0.00 0.00 0.00 67 1016.7
20260504011512 54 225 0.0 0.0 0.00 0.00 0.00 65 1016.6
20260504011004 55 225 0.0 0.0 0.00 0.00 0.00 63 1016.6
20260504010503 56 225 0.0 0.0 0.00 0.00 0.00 61 1016.6
20260504010012 57 225 0.0 0.0 0.00 0.00 0.00 58 1016.6
20260504005504 58 225 0.0 0.0 0.00 0.00 0.00 57 1016.5
20260504005004 59 225 0.0 0.0 0.00 0.00 0.00 54 1016.4
20260504004511 60 224 0.0 1.0 0.00 0.00 0.00 53 1016.4
20260504004003 61 225 0.0 1.0 0.00 0.00 0.00 52 1016.4
20260504003503 61 225 0.0 2.0 0.00 0.00 0.00 50 1016.3
20260504003013 62 225 1.0 3.0 0.00 0.00 0.00 48 1016.3
20260504002503 63 229 1.0 4.0 0.00 0.00 0.00 47 1016.3
20260504002004 64 250 2.0 4.0 0.00 0.00 0.00 45 1016.3
20260504001511 64 245 1.0 4.0 0.00 0.00 0.00 44 1016.3
20260504001004 65 236 3.0 5.0 0.00 0.00 0.00 43 1016.3
20260504000504 65 227 3.0 7.0 0.00 0.00 0.00 42 1016.3
20260504000042 65 241 4.0 7.0 0.00 0.00 0.00 42 1016.3
20260503235506 66 252 3.0 6.0 0.00 0.00 0.00 42 1016.3
20260503235004 66 236 4.0 7.0 0.00 0.00 0.00 41 1016.4
20260503234513 66 229 4.0 7.0 0.00 0.00 0.00 41 1016.4
20260503234004 66 240 5.0 8.0 0.00 0.00 0.00 40 1016.4
20260503233505 66 234 6.0 9.0 0.00 0.00 0.00 40 1016.4
20260503233016 66 253 5.0 9.0 0.00 0.00 0.00 40 1016.6
20260503232507 66 209 6.0 9.0 0.00 0.00 0.00 39 1016.6
20260503232004 67 225 6.0 7.0 0.00 0.00 0.00 39 1016.7
20260503231514 67 276 5.0 7.0 0.00 0.00 0.00 39 1016.7
20260503231004 67 248 5.0 8.0 0.00 0.00 0.00 39 1016.8
20260503230504 67 258 5.0 8.0 0.00 0.00 0.00 38 1016.9
20260503230011 67 270 3.0 8.0 0.00 0.00 0.00 38 1017.0
20260503225504 67 250 6.0 8.0 0.00 0.00 0.00 39 1017.1
20260503225007 67 238 3.0 5.0 0.00 0.00 0.00 38 1017.2
20260503224516 67 323 2.0 6.0 0.00 0.00 0.00 40 1017.2
20260503224004 67 309 4.0 7.0 0.00 0.00 0.00 39 1017.3
20260503223504 67 244 4.0 9.0 0.00 0.00 0.00 40 1017.3
20260503223016 66 289 7.0 10.0 0.00 0.00 0.00 40 1017.3
20260503222503 66 263 4.0 10.0 0.00 0.00 0.00 39 1017.3
20260503222003 67 293 2.0 11.0 0.00 0.00 0.00 39 1017.3
20260503221516 67 245 5.0 11.0 0.00 0.00 0.00 41 1017.3
20260503221007 67 269 6.0 9.0 0.00 0.00 0.00 38 1017.2
20260503220506 67 212 3.0 6.0 0.00 0.00 0.00 40 1017.4
20260503220015 67 257 3.0 6.0 0.00 0.00 0.00 40 1017.3
20260503215504 66 254 1.0 9.0 0.00 0.00 0.00 38 1017.3
20260503215003 66 272 6.0 10.0 0.00 0.00 0.00 38 1017.4
20260503214519 67 249 7.0 10.0 0.00 0.00 0.00 36 1017.5
20260503214005 66 252 4.0 9.0 0.00 0.00 0.00 40 1017.6
20260503213509 66 259 5.0 10.0 0.00 0.00 0.00 38 1017.7
20260503213016 66 259 7.0 10.0 0.00 0.00 0.00 38 1017.7
20260503212506 66 263 4.0 13.0 0.00 0.00 0.00 40 1017.8
20260503212005 66 290 7.0 13.0 0.00 0.00 0.00 36 1017.9
20260503211517 67 257 5.0 9.0 0.00 0.00 0.00 37 1017.9
20260503211003 66 250 1.0 7.0 0.00 0.00 0.00 38 1018.0
20260503210505 65 226 2.0 8.0 0.00 0.00 0.00 39 1018.1
20260503210019 65 295 6.0 12.0 0.00 0.00 0.00 37 1018.2
20260503205506 65 263 8.0 12.0 0.00 0.00 0.00 37 1018.2
20260503205007 66 233 5.0 12.0 0.00 0.00 0.00 37 1018.2
20260503204519 66 229 6.0 11.0 0.00 0.00 0.00 37 1018.3
20260503204005 66 253 7.0 11.0 0.00 0.00 0.00 36 1018.3
20260503203504 66 207 5.0 10.0 0.00 0.00 0.00 36 1018.4
20260503203025 65 218 1.0 10.0 0.00 0.00 0.00 41 1018.4
20260503202508 65 254 8.0 13.0 0.00 0.00 0.00 38 1018.5
20260503202006 65 271 8.0 13.0 0.00 0.00 0.00 37 1018.7
20260503201518 65 240 5.0 13.0 0.00 0.00 0.00 37 1018.7
20260503201006 65 293 6.0 13.0 0.00 0.00 0.00 36 1018.9
20260503200503 65 226 7.0 12.0 0.00 0.00 0.00 38 1018.9
20260503200020 64 243 5.0 11.0 0.00 0.00 0.00 36 1019.0
20260503195508 64 281 5.0 12.0 0.00 0.00 0.00 37 1019.2
20260503195005 64 264 8.0 12.0 0.00 0.00 0.00 37 1019.3
20260503194512 65 229 8.0 12.0 0.00 0.00 0.00 37 1019.4
20260503194003 65 255 7.0 11.0 0.00 0.00 0.00 41 1019.5
20260503193505 65 251 1.0 5.0 0.00 0.00 0.00 39 1019.6
20260503193018 64 105 2.0 10.0 0.00 0.00 0.00 40 1019.7
20260503192507 64 267 6.0 10.0 0.00 0.00 0.00 41 1019.8
20260503192006 64 213 3.0 12.0 0.00 0.00 0.00 39 1019.8
20260503191520 64 264 9.0 12.0 0.00 0.00 0.00 38 1019.9
20260503191007 63 233 1.0 14.0 0.00 0.00 0.00 40 1019.9
20260503190507 63 262 9.0 14.0 0.00 0.00 0.00 36 1020.0
20260503190025 63 239 3.0 9.0 0.00 0.00 0.00 39 1020.1
20260503185507 63 227 4.0 11.0 0.00 0.00 0.00 37 1020.1
20260503185011 63 268 4.0 11.0 0.00 0.00 0.00 37 1020.2
20260503184523 62 266 6.0 13.0 0.00 0.00 0.00 35 1020.2
20260503184005 63 276 5.0 13.0 0.00 0.00 0.00 38 1020.3
20260503183503 63 243 4.0 11.0 0.00 0.00 0.00 38 1020.3
20260503183013 62 207 7.0 11.0 0.00 0.00 0.00 37 1020.3
20260503182503 62 84 3.0 10.0 0.00 0.00 0.00 36 1020.4
20260503182003 62 278 5.0 10.0 0.00 0.00 0.00 37 1020.5
20260503181517 61 217 3.0 11.0 0.00 0.00 0.00 39 1020.5
20260503181004 62 242 9.0 12.0 0.00 0.00 0.00 38 1020.5
20260503180505 62 226 4.0 13.0 0.00 0.00 0.00 41 1020.7
20260503180028 63 240 9.0 13.0 0.00 0.00 0.00 42 1020.7
20260503175507 62 165 4.0 9.0 0.00 0.00 0.00 41 1020.7
20260503175007 62 219 6.0 11.0 0.00 0.00 0.00 42 1020.7
20260503174521 62 233 0.0 11.0 0.00 0.00 0.00 42 1020.7
20260503174009 61 192 5.0 9.0 0.00 0.00 0.00 44 1020.8
20260503173507 61 214 5.0 9.0 0.00 0.00 0.00 43 1021.0
20260503173040 61 250 1.0 10.0 0.00 0.00 0.00 45 1021.1
20260503172504 61 229 4.0 10.0 0.00 0.00 0.00 46 1021.2
20260503172003 61 228 5.0 10.0 0.00 0.00 0.00 45 1021.1
20260503171512 61 122 3.0 8.0 0.00 0.00 0.00 44 1021.2
20260503171003 61 211 4.0 8.0 0.00 0.00 0.00 48 1021.3
20260503170503 61 36 2.0 4.0 0.00 0.00 0.00 50 1021.5
20260503151011 57 240 3.0 6.0 0.00 0.00 0.00 52 1022.0
20260503150508 57 196 3.0 6.0 0.00 0.00 0.00 52 1022.1
20260503131008 46 205 0.0 2.0 0.00 0.00 0.00 96 1021.9
20260503130505 45 220 0.0 2.0 0.00 0.00 0.00 95 1022.0
20260503110507 36 58 0.0 1.0 0.00 0.00 0.00 95 1021.1
20260503090503 38 49 0.0 1.0 0.00 0.00 0.00 94 1020.2
20260503081518 39 49 0.0 0.0 0.00 0.00 0.00 94 1020.1
20260503081003 39 49 0.0 0.0 0.00 0.00 0.00 94 1020.1
20260503080503 39 49 0.0 0.0 0.00 0.00 0.00 94 1020.1
20260503072510 40 49 0.0 0.0 0.00 0.00 0.00 94 1019.8
20260503072008 39 49 0.0 0.0 0.00 0.00 0.00 94 1019.8
20260503071526 39 49 0.0 0.0 0.00 0.00 0.00 93 1019.8
20260503071008 39 49 0.0 0.0 0.00 0.00 0.00 93 1019.8
20260503070503 40 49 0.0 0.0 0.00 0.00 0.00 93 1019.7